Weather in Zahedan

Iran     28°45′42″N   53°47′16″E
temp.,
°C
wind,
m/s
gust,
m/s
humid.,
%
clouds,
%
prec.,
mm/h
press.,
hPa
HPBL,
m
25 january, mon
mon2500:30+7sw00370 0.0 102022
03:30+6n11380 0.0 102022
06:30+5nw01380 0.0 102122
09:30+12ese01220 0.0 1022217
12:30+15s11190 0.0 1019914
15:30+16ssw22190 0.0 10171174
18:30+12sw12310 0.0 101923
21:30+9ssw11380 0.0 102022
26 january, tue
tue2600:30+8wsw01420 0.0 101922
03:30+6wsw00440 0.0 101922
06:30+5ne00460 0.0 102022
09:30+12nnw01290 0.0 1020259
12:30+15wsw12200 0.0 1017994
15:30+16sw23170 0.0 10151202
18:30+11ssw12290 0.0 101723
21:30+9wnw11300 0.0 101822
27 january, wed
wed2700:30+8nw12290 0.0 101923
03:30+6nw12310 0.0 101922
06:30+6nnw12310 0.0 102022
09:30+13nnw11190 0.0 1021222
12:30+16sw01130 0.0 1019911
15:30+17ssw21110 0.0 10171079
18:30+12s11220 0.0 101923
21:30+10wsw01251 0.0 102023
28 january, thu
thu2800:30+9wsw002738 0.0 101922
03:30+8ene012769 0.0 101922
06:30+7nne002769 0.0 102022
09:30+14ene111677 0.0 1021169
12:30+17sse111366 0.0 1019873
15:30+18sw121240 0.0 10171101
18:30+12ssw11240 0.0 101923
21:30+10ese11270 0.0 102023
29 january, fri
fri2900:30+9nne11280 0.0 102022
03:30+8nne11290 0.0 102022
06:30+7e11297 0.0 102022
09:30+14e11164 0.0 1021246
12:30+18s12130 0.0 1018795
15:30+19ssw24130 0.0 10161048
18:30+14ssw12230 0.0 101723
21:30+12ssw01290 0.0 101923